Wichita Mid Continent Airport
KICT : now visible

Airfield :











YOU CAN JOIN US ON...

 
LOGIN :

Register | Disclaimer

   EN    FR    IT 

 









Legend :    VFR   Marginal VFR   IFR   Intensive IFR   Very Intensive IFR
Visi :
Ceiling :
>= 8 km
>= 3000ft
5 to 8 km
1000 to 3000 ft
1500m to 5 km
500 to 1000 ft
800 to 1500m
200 to 500 ft
< 800m
< 200 ft
Symbols :   Thunderstorms  Fog  Heavy snow  Heavy precipitations  Wind > 20 kt







- Airport Elevation : 1333 ft
- IATA code : ICT


KICT - Wichita Mid Continent

CURRENT METAR :
  • 251853Z 19009KT 10SM FEW040 FEW180 SCT220 SCT250 32/19 A2995 RMK AO2 SLP125 T03170189

EXPIRED METARs :
  • 251753Z 19009KT 10SM FEW040 FEW180 FEW220 SCT250 31/18 A2997 RMK AO2 SLP135 T03060178 10311 20178 50000
  • 251653Z 22008KT 10SM FEW160 SCT200 30/19 A2998 RMK AO2 SLP138 T03000189

TAF KICT
Valid from the 25 at 18:00 until the 26 at 18:00 UTC


251732Z 2518/2618 21009KT P6SM BKN250
FM260200 16009KT P6SM SKC
KZKC FIR / North America



MET'MAP, your aeronautical weather chart ! - Copyright ORBIFLY December 2007 - Disclaimer

ORBIFLY MET'MAP TEAM :

Programming & Development : Alexandra Zaïnal
Concept & Development : Baudouin d'Aumeries
Co-Development & Prog : Marc-Olivier Méhu
Technical & hardware support : Manuel Goepfert

Contact : metmap@orbifly.com




SOURCES & CREDITS :

   NOAA       Earth
Advisory